Location: East Irvine
(33.6759°N, 117.7598°W)
Time: 23:10:48
(UTC+00:00)

Cosmos 371 Rocket - Pass Details

Date: 15 November 2025
Orbit: 674 x 690 km, 74.0° (Epoch: 13 December)

Event Time Altitude Azimuth Distance (km) Brightness Sun altitude
Rises 02:01:58 0° 176° (S) 3,017 6.7 -15.5°
Reaches altitude 10° 02:04:23 10° 168° (SSE) 2,110 5.8 -16.0°
Maximum altitude 02:08:45 37° 101° (ESE) 1,052 3.7 -16.8°
Enters shadow 02:10:10 30° 64° (ENE) 1,212 4.0 -17.1°
